Location: *
(46.4000°N, 12.6667°E)
Time: 17:58:25
(UTC+00:00)

ARGOS - Pass Details

Date: 09 April 2020
Orbit: 820 x 834 km, 98.5° (Epoch: 28 May)

Event Time Altitude Azimuth Distance (km) Brightness Sun altitude
Rises 19:22:10 0° 184° (S) 3,357 6.1 -15.7°
Reaches altitude 10° 19:24:38 10° 191° (S) 2,426 5.4 -16.0°
Maximum altitude 19:29:43 43° 262° (W) 1,155 4.3 -16.8°
Drops below altitude 10° 19:34:50 10° 333° (NNW) 2,434 6.5 -17.5°
Sets 19:37:19 0° 341° (NNW) 3,370 7.2 -17.9°
